Location: Unspecified
(43.4354°N, 0.0000°E)
Time: 13:18:59
(UTC+00:00)

S-56A Canister/Altair - Pass Details

Date: 26 June 2019
Orbit: 633 x 2499 km, 38.9° (Epoch: 24 August)

Event Time Altitude Azimuth Distance (km) Brightness Sun altitude
Rises 11:16:44 0° 185° (S) 6,068 12.4 67.8°
Reaches altitude 10° 11:23:45 10° 164° (SSE) 4,822 12.1 68.4°
Maximum altitude 11:29:27 14° 139° (SE) 4,205 11.8 68.8°
Drops below altitude 10° 11:34:31 10° 112° (ESE) 4,204 11.6 69.1°
Sets 11:39:42 0° 89° (E) 4,800 11.7 69.4°
